FW9349 Weather Reports


time (UTC)temp
F
wind
direction
speed
knots
gust
knots
rain 1hr
in
rain 24hr
in
rain mn
in
humidity
%
barometer
mb
20260507121552 53 336 2.6 7.0 0.00 0.05 0.00 77 1015.7
20260507120049 54 17 1.7 7.0 0.00 0.05 0.00 77 1015.7
20260507114545 54 331 0.9 6.1 0.00 0.05 0.00 75 1015.6
20260507113051 54 12 0.9 5.2 0.00 0.05 0.00 77 1015.6
20260507111550 54 348 1.7 7.0 0.00 0.05 0.00 79 1015.5
20260507110053 53 31 1.7 7.0 0.00 0.05 0.00 79 1015.6
20260507104553 53 333 2.6 7.0 0.00 0.05 0.00 78 1015.6
20260507103048 52 5 1.7 5.2 0.00 0.05 0.00 79 1015.4
20260507101602 52 26 2.6 7.0 0.00 0.05 0.00 80 1015.5
20260507100053 52 0 1.7 6.1 0.00 0.05 0.00 81 1015.4
20260507094556 51 328 2.6 7.0 0.00 0.05 0.00 81 1015.4
20260507093048 51 308 3.5 7.8 0.00 0.05 0.00 81 1015.2
20260507091600 52 292 2.6 6.1 0.00 0.05 0.00 81 1015.0
20260507090107 51 43 2.6 6.1 0.00 0.05 0.00 83 1014.9
20260507084547 51 305 2.6 7.0 0.00 0.05 0.00 83 1014.9
20260507083046 51 325 0.9 4.3 0.00 0.05 0.00 84 1014.8
20260507081552 51 9 0.9 7.8 0.00 0.05 0.00 83 1014.7
20260507080049 50 292 3.5 8.7 0.00 0.05 0.00 82 1014.5
20260507074550 51 323 1.7 7.0 0.00 0.05 0.00 84 1014.4
20260507073058 51 331 3.5 7.0 0.00 0.05 0.00 84 1014.1
20260507071546 50 334 0.9 2.6 0.00 0.05 0.00 85 1014.0
20260507070119 50 290 1.7 3.5 0.00 0.05 0.00 85 1013.8
20260507064548 50 314 0.0 5.2 0.00 0.05 0.00 85 1013.8
20260507063042 50 0 0.0 2.6 0.00 0.05 0.00 86 1013.6
20260507061546 50 339 0.9 4.3 0.00 0.05 0.00 86 1013.4
20260507060050 50 0 0.9 3.5 0.00 0.05 0.00 86 1013.2
20260507054551 50 302 1.7 5.2 0.00 0.05 0.00 86 1013.1
20260507053045 50 290 1.7 6.1 0.00 0.05 0.00 85 1013.0
20260507051544 50 301 5.2 7.8 0.00 0.05 0.00 86 1012.8
20260507050050 50 287 3.5 6.1 0.00 0.05 0.00 87 1012.6
20260507044549 49 289 1.7 3.5 0.00 0.05 0.00 87 1012.4
20260507043052 49 299 1.7 3.5 0.00 0.05 0.00 87 1012.2
20260507041545 49 306 0.0 5.2 0.00 0.05 0.00 87 1012.0
20260507040050 49 293 3.5 7.0 0.00 0.05 0.00 87 1011.9
20260507034547 49 298 3.5 7.0 0.00 0.05 0.00 87 1011.9
20260507033049 49 302 2.6 6.1 0.00 0.05 0.00 87 1011.9
20260507031548 49 306 1.7 3.5 0.00 0.05 0.00 87 1011.6
20260507030105 49 321 0.9 4.3 0.00 0.05 0.00 87 1011.5
20260507024551 49 321 0.9 7.0 0.00 0.05 0.00 87 1011.5
20260507023052 49 315 3.5 7.8 0.00 0.05 0.00 87 1011.4
20260507021551 50 315 1.7 7.8 0.00 0.05 0.00 86 1011.2
20260507020052 50 325 2.6 8.7 0.00 0.05 0.00 86 1011.1
20260507014608 50 313 1.7 6.1 0.00 0.05 0.00 86 1011.1
20260507013052 50 307 0.9 4.3 0.00 0.05 0.00 86 1010.9
20260507011546 50 327 1.7 6.1 0.00 0.05 0.00 86 1011.0
20260507010050 50 360 0.9 5.2 0.00 0.05 0.00 86 1010.9
20260507004547 50 320 0.9 7.8 0.00 0.05 0.00 86 1010.9
20260507003047 50 0 0.9 8.7 0.00 0.05 0.00 86 1010.8
20260507001552 50 306 1.7 7.0 0.00 0.05 0.00 86 1010.7
20260507000048 50 311 0.9 4.3 0.00 0.05 0.00 86 1010.9
20260506234545 50 0 0.0 2.6 0.00 0.05 0.00 86 1010.8
20260506233047 50 0 0.0 3.5 0.00 0.05 0.00 86 1010.7
20260506231544 50 318 1.7 4.3 0.00 0.05 0.00 86 1010.6
20260506230057 51 355 0.0 5.2 0.00 0.05 0.00 87 1010.6
20260506224550 51 341 1.7 7.0 0.00 0.05 0.00 87 1010.4
20260506223046 51 342 2.6 9.6 0.00 0.05 0.00 86 1010.3
20260506221548 51 348 2.6 7.0 0.00 0.05 0.00 87 1010.1
20260506220047 51 312 2.6 8.7 0.00 0.05 0.00 87 1010.1
20260506214546 52 331 2.6 7.8 0.00 0.11 0.05 87 1009.9
20260506213053 52 331 0.9 4.3 0.00 0.11 0.05 87 1009.9
20260506211547 52 318 2.6 7.8 0.00 0.11 0.05 87 1009.6
20260506210050 52 309 3.5 9.6 0.00 0.11 0.05 86 1009.6
20260506204545 53 317 2.6 7.0 0.00 0.20 0.05 86 1009.4
20260506203051 53 310 1.7 6.1 0.00 0.20 0.05 87 1009.3
20260506201604 53 317 1.7 7.8 0.00 0.20 0.05 87 1009.3
20260506200051 54 0 0.9 4.3 0.00 0.20 0.05 87 1009.0
20260506194553 54 330 1.7 4.3 0.00 0.20 0.05 87 1008.8
20260506193051 54 314 0.9 4.3 0.00 0.20 0.05 86 1008.6
20260506191548 54 304 2.6 7.0 0.00 0.20 0.05 86 1008.4
20260506190051 54 333 1.7 9.6 0.00 0.20 0.05 87 1008.3
20260506184554 55 333 0.0 6.1 0.00 0.20 0.05 89 1008.1
20260506183047 55 349 0.9 6.1 0.01 0.20 0.05 88 1007.8
20260506181606 55 308 0.9 6.1 0.03 0.20 0.05 88 1007.7
20260506180048 55 317 1.7 6.1 0.03 0.20 0.05 88 1007.5
20260506174549 56 300 2.6 7.0 0.03 0.20 0.05 87 1007.5
20260506173112 56 275 6.1 8.7 0.03 0.18 0.03 86 1007.2
20260506171556 57 265 4.3 11.3 0.02 0.17 0.02 83 1007.1
20260506170050 59 259 7.8 13.0 0.02 0.17 0.02 78 1006.9
20260506164547 60 252 6.1 14.8 0.01 0.16 0.01 75 1006.6
20260506163102 63 237 3.5 7.0 0.00 0.14 0.00 66 1006.2
20260506161546 63 208 3.5 7.8 0.00 0.14 0.00 64 1006.1
20260506160046 64 205 1.7 5.2 0.00 0.14 0.00 64 1006.1
20260506154552 64 266 3.5 7.8 0.00 0.14 0.00 63 1006.3
20260506153048 64 252 0.9 9.6 0.00 0.14 0.00 62 1006.4
20260506151549 64 287 1.7 10.4 0.00 0.14 0.00 63 1006.3
20260506150055 64 217 4.3 9.6 0.00 0.14 0.00 61 1006.3
20260506144550 63 248 5.2 10.4 0.00 0.21 0.00 62 1006.0
20260506143051 64 252 5.2 12.2 0.00 0.21 0.00 61 1006.0
20260506141553 64 246 5.2 13.9 0.00 0.21 0.00 59 1006.0
20260506140058 64 187 6.1 13.9 0.00 0.21 0.00 58 1006.0
20260506134545 65 240 7.0 13.9 0.00 0.23 0.00 61 1005.9
20260506133047 64 277 7.8 12.2 0.00 0.23 0.00 63 1006.1
20260506131545 64 231 7.8 11.3 0.00 0.23 0.00 63 1006.0
20260506130054 65 237 5.2 13.0 0.00 0.23 0.00 62 1006.1
20260506124550 64 272 5.2 13.0 0.00 0.23 0.00 65 1006.1
20260506123050 64 223 5.2 13.0 0.00 0.23 0.00 64 1006.0